TimeCST,TemperatureF,Dew PointF,Humidity,Sea Level PressureIn,VisibilityMPH,Wind Direction,Wind SpeedMPH,Gust SpeedMPH,PrecipitationIn,Events,Conditions,WindDirDegrees,DateUTC
12:15 AM,39.2,39.2,100,29.71,10.0,Calm,Calm,-,N/A,Rain,Light Rain,0,2012-12-29 06:15:00
12:35 AM,39.2,39.2,100,29.71,7.0,NNW,4.6,-,N/A,,Overcast,340,2012-12-29 06:35:00
12:55 AM,39.2,39.2,100,29.73,10.0,Calm,Calm,-,N/A,,Overcast,0,2012-12-29 06:55:00
1:15 AM,39.2,39.2,100,29.74,3.0,Calm,Calm,-,N/A,Rain,Rain,0,2012-12-29 07:15:00
1:35 AM,39.2,37.4,93,29.74,5.0,East,3.5,-,N/A,Rain,Rain,80,2012-12-29 07:35:00
1:55 AM,39.2,37.4,93,29.74,5.0,NNE,3.5,-,0.01,Rain,Rain,30,2012-12-29 07:55:00
2:15 AM,39.2,37.4,93,29.74,4.0,Calm,Calm,-,0.02,Rain,Heavy Rain,0,2012-12-29 08:15:00
2:35 AM,39.2,37.4,93,29.75,2.5,Calm,Calm,-,0.02,Rain,Rain,0,2012-12-29 08:35:00
2:55 AM,39.2,37.4,93,29.74,2.5,Calm,Calm,-,N/A,Rain,Rain,0,2012-12-29 08:55:00
3:15 AM,39.2,37.4,93,29.74,4.0,Calm,Calm,-,0.01,Rain,Light Rain,0,2012-12-29 09:15:00
3:35 AM,39.2,37.4,93,29.73,3.0,Calm,Calm,-,0.01,Rain,Light Rain,0,2012-12-29 09:35:00
3:55 AM,39.2,37.4,93,29.73,3.0,Calm,Calm,-,N/A,Rain,Light Rain,0,2012-12-29 09:55:00
4:15 AM,39.2,37.4,93,29.73,5.0,Calm,Calm,-,N/A,,Overcast,0,2012-12-29 10:15:00
4:35 AM,39.2,39.2,100,29.73,4.0,Calm,Calm,-,N/A,,Overcast,0,2012-12-29 10:35:00
4:55 AM,39.2,39.2,100,29.73,7.0,WSW,3.5,-,N/A,Rain,Rain,250,2012-12-29 10:55:00
5:15 AM,39.2,39.2,100,29.73,3.0,Calm,Calm,-,N/A,,Drizzle,0,2012-12-29 11:15:00
5:35 AM,39.2,39.2,100,29.73,5.0,NNE,3.5,-,N/A,,Drizzle,30,2012-12-29 11:35:00
5:55 AM,39.2,39.2,100,29.75,7.0,Calm,Calm,-,N/A,,Drizzle,0,2012-12-29 11:55:00
6:15 AM,42.8,41.0,93,29.76,10.0,WSW,5.8,-,N/A,Rain,Light Rain,240,2012-12-29 12:15:00
6:35 AM,42.8,41.0,93,29.77,10.0,West,3.5,-,N/A,Rain,Light Rain,280,2012-12-29 12:35:00
6:55 AM,42.8,39.2,87,29.78,10.0,WNW,9.2,-,N/A,,Light Drizzle,290,2012-12-29 12:55:00
7:15 AM,41.0,39.2,93,29.80,10.0,Calm,Calm,-,N/A,Rain,Light Rain,0,2012-12-29 13:15:00
8:15 AM,39.2,37.4,93,29.83,5.0,West,5.8,-,N/A,Rain,Light Rain,280,2012-12-29 14:15:00
8:35 AM,39.2,37.4,93,29.85,7.0,WNW,9.2,-,N/A,Rain,Light Rain,300,2012-12-29 14:35:00
8:55 AM,39.2,37.4,93,29.87,10.0,WNW,10.4,16.1,N/A,,Light Drizzle,290,2012-12-29 14:55:00
9:15 AM,39.2,37.4,93,29.88,5.0,NNW,6.9,17.3,N/A,Rain,Rain,340,2012-12-29 15:15:00
9:35 AM,37.4,35.6,93,29.90,10.0,NNW,8.1,18.4,N/A,Rain,Light Rain,330,2012-12-29 15:35:00
9:55 AM,37.4,35.6,93,29.90,10.0,NNW,6.9,-,N/A,,Overcast,330,2012-12-29 15:55:00
10:15 AM,37.4,33.8,87,29.91,10.0,WNW,9.2,-,N/A,,Overcast,300,2012-12-29 16:15:00
10:35 AM,37.4,33.8,87,29.91,10.0,NW,4.6,-,N/A,,Overcast,310,2012-12-29 16:35:00
10:55 AM,37.4,33.8,87,29.90,10.0,NW,8.1,-,N/A,,Overcast,320,2012-12-29 16:55:00
11:15 AM,37.4,33.8,87,29.90,1.0,WNW,8.1,16.1,N/A,,Overcast,290,2012-12-29 17:15:00
11:35 AM,37.4,33.8,87,29.90,10.0,NW,5.8,-,N/A,,Overcast,310,2012-12-29 17:35:00
11:55 AM,37.4,33.8,87,29.90,10.0,NW,5.8,-,N/A,,Overcast,320,2012-12-29 17:55:00
12:15 PM,37.4,33.8,87,29.90,7.0,NW,9.2,-,N/A,,Overcast,320,2012-12-29 18:15:00
12:35 PM,37.4,33.8,87,29.91,10.0,NW,9.2,-,N/A,,Overcast,310,2012-12-29 18:35:00
12:55 PM,37.4,33.8,87,29.92,10.0,NNW,6.9,-,N/A,,Overcast,330,2012-12-29 18:55:00
1:15 PM,35.6,33.8,93,29.92,10.0,NNW,10.4,-,N/A,,Overcast,330,2012-12-29 19:15:00
1:35 PM,35.6,33.8,93,29.93,7.0,NW,10.4,-,N/A,,Overcast,320,2012-12-29 19:35:00
1:55 PM,35.6,32.0,87,29.94,7.0,WNW,6.9,-,N/A,,Overcast,300,2012-12-29 19:55:00
2:15 PM,35.6,32.0,87,29.96,7.0,WNW,9.2,16.1,N/A,,Overcast,290,2012-12-29 20:15:00
2:35 PM,35.6,32.0,87,29.96,7.0,NW,4.6,-,N/A,,Overcast,310,2012-12-29 20:35:00
2:55 PM,35.6,30.2,81,29.98,7.0,WNW,8.1,-,N/A,,Overcast,300,2012-12-29 20:55:00
3:15 PM,35.6,30.2,81,29.99,5.0,NW,4.6,-,N/A,Snow,Light Snow,310,2012-12-29 21:15:00
3:35 PM,35.6,30.2,81,30.00,7.0,WNW,9.2,-,N/A,,Overcast,300,2012-12-29 21:35:00
3:55 PM,35.6,30.2,81,30.01,7.0,NW,9.2,-,N/A,,Overcast,310,2012-12-29 21:55:00
4:15 PM,35.6,30.2,81,30.02,5.0,NW,8.1,16.1,N/A,Snow,Light Snow,320,2012-12-29 22:15:00
4:35 PM,35.6,30.2,81,30.03,7.0,NW,12.7,-,N/A,Snow,Light Snow,310,2012-12-29 22:35:00
4:55 PM,35.6,30.2,81,30.04,7.0,NW,9.2,-,N/A,Snow,Light Snow,320,2012-12-29 22:55:00
5:15 PM,33.8,30.2,87,30.05,5.0,NNW,9.2,18.4,N/A,Snow,Light Snow,330,2012-12-29 23:15:00
5:35 PM,33.8,30.2,87,30.07,5.0,NW,5.8,-,N/A,Snow,Light Snow,310,2012-12-29 23:35:00
5:55 PM,33.8,28.4,81,30.08,7.0,NW,12.7,16.1,N/A,Snow,Light Snow,310,2012-12-29 23:55:00
6:15 PM,33.8,28.4,81,30.09,10.0,NW,9.2,17.3,N/A,,Overcast,310,2012-12-30 00:15:00
6:35 PM,33.8,28.4,81,30.09,10.0,NW,10.4,18.4,N/A,,Overcast,320,2012-12-30 00:35:00
6:55 PM,33.8,28.4,81,30.10,5.0,NW,8.1,-,N/A,Snow,Light Snow,320,2012-12-30 00:55:00
7:15 PM,33.8,28.4,81,30.11,10.0,WNW,11.5,18.4,N/A,Snow,Light Snow,300,2012-12-30 01:15:00
7:35 PM,33.8,28.4,81,30.12,10.0,NW,6.9,19.6,N/A,,Overcast,310,2012-12-30 01:35:00
7:55 PM,33.8,28.4,81,30.13,10.0,WNW,5.8,-,N/A,,Overcast,290,2012-12-30 01:55:00
8:15 PM,33.8,26.6,75,30.14,10.0,WNW,9.2,-,N/A,,Overcast,300,2012-12-30 02:15:00
8:35 PM,33.8,26.6,75,30.14,10.0,NNW,8.1,-,N/A,,Overcast,330,2012-12-30 02:35:00
8:55 PM,32.0,28.4,87,30.16,3.0,Calm,Calm,-,N/A,Snow,Light Snow,0,2012-12-30 02:55:00
9:15 PM,33.8,26.6,75,30.17,7.0,NW,6.9,-,N/A,Snow,Light Snow,310,2012-12-30 03:15:00
9:35 PM,33.8,26.6,75,30.18,7.0,NNW,5.8,18.4,N/A,Snow,Light Snow,330,2012-12-30 03:35:00
9:55 PM,32.0,26.6,80,30.19,10.0,NW,6.9,18.4,N/A,Snow,Light Snow,320,2012-12-30 03:55:00
10:15 PM,32.0,26.6,80,30.19,10.0,WNW,5.8,16.1,N/A,Snow,Light Snow,300,2012-12-30 04:15:00
10:35 PM,32.0,26.6,80,30.21,7.0,NW,10.4,17.3,N/A,Snow,Light Snow,310,2012-12-30 04:35:00
10:55 PM,32.0,24.8,75,30.22,7.0,NW,11.5,19.6,N/A,Snow,Light Snow,310,2012-12-30 04:55:00
11:15 PM,32.0,26.6,80,30.22,10.0,NNW,13.8,21.9,N/A,,Overcast,330,2012-12-30 05:15:00
11:35 PM,32.0,26.6,80,30.22,10.0,NNW,5.8,-,N/A,,Overcast,330,2012-12-30 05:35:00
11:55 PM,30.2,26.6,86,30.23,10.0,NW,8.1,-,N/A,,Overcast,320,2012-12-30 05:55:00